Location: Burbank
(38.7788°N, 114.0429°W)
Time: 23:17:56
(UTC+00:00)

Transit 2A - Pass Details

Date: 17 May 2026
Orbit: 595 x 949 km, 66.7° (Epoch: 5 June)

Event Time Altitude Azimuth Distance (km) Brightness Sun altitude
Rises 00:48:32 0° 267° (W) 3,559 10.9 20.3°
Reaches altitude 10° 00:52:57 10° 296° (WNW) 2,560 10.5 19.5°
Maximum altitude 00:55:15 12° 319° (NW) 2,364 9.5 19.0°
Drops below altitude 10° 00:57:31 10° 342° (NNW) 2,482 9.1 18.6°
Sets 01:01:40 0° 13° (NNE) 3,330 9.3 17.8°
